View from above orbital plane
|
View from above satellite
|
Ground track
|
The orbit data is extracted from the following two-line orbital elements,
1 32787U 08021E 21015.96013299 .00000209 00000-0 24734-4 0 9991
2 32787 97.5193 13.2687 0013850 81.0272 279.2516 14.93917549690769
Epoch (UTC): | 15 January 2021 23:02:35 |
Eccentricity: | 0.0013850 |
inclination: | 97.5193° |
perigee height: | 576 km |
apogee height: | 595 km |
right ascension of ascending node: | 13.2687° |
argument of perigee: | 81.0272° |
revolutions per day: | 14.93917549 |
mean anomaly at epoch: | 279.2516° |
orbit number at epoch: | 69076 |
The dashed part of the orbit path shows where the satellite is in the earth's shadow,
|
|